This is the latest recevied weather packets stored in our database for station/object CE1RLP-31. If no packets are shown the sender has not sent any weather packets the latest 10 day(s).
| Time | Temp. | Humidity | Pressure | Rain* | Wind** | Luminosity | Snow |
|---|---|---|---|---|---|---|---|
| 1777839761 | 17.22° C | 10% | 1099.6 hPa | - | - | - | - |
| 1777838861 | 17.22° C | 10% | 1099.7 hPa | - | - | - | - |
| 1777837961 | 17.78° C | 9% | 1099.6 hPa | - | - | - | - |
| 1777837061 | 17.78° C | 9% | 1099.6 hPa | - | - | - | - |
| 1777833460 | 20° C | 9% | 1099.9 hPa | - | - | - | - |
| 1777832560 | 20° C | 9% | 1100 hPa | - | - | - | - |
| 1777828960 | 21.11° C | 9% | 1100.5 hPa | - | - | - | - |
| 1777828060 | 21.11° C | 9% | 1100.6 hPa | - | - | - | - |
| 1777827160 | 21.11° C | 9% | 1100.7 hPa | - | - | - | - |
| 1777823561 | 19.44° C | 10% | 1101 hPa | - | - | - | - |
| 1777822661 | 19.44° C | 10% | 1100.9 hPa | - | - | - | - |
| 1777817260 | 16.11° C | 11% | 1101.2 hPa | - | - | - | - |
| 1777815460 | 15° C | 11% | 1101.2 hPa | - | - | - | - |
| 1777813660 | 13.33° C | 11% | 1100.8 hPa | - | - | - | - |
| 1777812760 | 12.78° C | 10% | 1100.7 hPa | - | - | - | - |
| 1777811859 | 12.22° C | 10% | 1100.7 hPa | - | - | - | - |
| 1777805559 | 10.56° C | 10% | 1099.8 hPa | - | - | - | - |
| 1777804659 | 10.56° C | 10% | 1099.8 hPa | - | - | - | - |
| 1777803759 | 10.56° C | 10% | 1099.7 hPa | - | - | - | - |
| 1777802859 | 10.56° C | 9% | 1099.7 hPa | - | - | - | - |
| 1777801060 | 10.56° C | 9% | 1099.7 hPa | - | - | - | - |
| 1777800160 | 10.56° C | 9% | 1099.7 hPa | - | - | - | - |
| 1777799260 | 10.56° C | 9% | 1099.6 hPa | - | - | - | - |
| 1777798360 | 10.56° C | 9% | 1099.6 hPa | - | - | - | - |
| 1777797460 | 10.56° C | 9% | 1099.6 hPa | - | - | - | - |
* Rain since midnight (hover to see other rain measurements)
** Current wind speed in m/s (hover to see current wind gust speed)